Flag for Canada Weather past 2 weeks in Steinbach, Manitoba, Canada

Now
43 °F

Quite cool.


Feels Like: 41 °F
Forecast: 20 / 40 °F
Wind: 3 mph from Southeast

Location: Winnipeg The Forks


UV Index: 3 (Moderate)

Visibility: N/A


Pressure: 30.28 "Hg

Humidity: 26%

Dew point: 10 °F

Location of SteinbachLocation

Historic Weather in Steinbach

°F

Steinbach temperature yesterday

Maximum temperature yesterday: 36 °F (at 6:00 PM)
Minimum temperature yesterday: 13 °F (at 6:00 AM)
Average temperature yesterday: 26 °F

Past Weeks' High & Low Weather Summary

 TemperatureHumidityPressure
High50 °F (Apr 9, 4:00 PM)100% (Apr 6, 5:00 AM)30.45 "Hg (Apr 6, 5:00 AM)
Low10 °F (Apr 15, 1:00 AM)25% (Apr 17, 7:00 PM)29.31 "Hg (Apr 9, 4:00 PM)
Average31 °F64%30.01 "Hg
* Reported Apr 3 12:00 Noon — Apr 18 12:00 Noon, Steinbach, Weather by CustomWeather, © 2014

Note: Actual official high and low records may vary slightly from our data, if they occured in-between our weather recording intervals... More about our weather records

Advertising

Historic Weather Conditions — Data for Previous 24 hours

 ConditionsComfort  
Time TempWeatherWind HumidityBarometerVisibility
12:00 PM
Apr 18
41 °FQuite cool.6 mph30%30.32 "HgN/A
11:00 AM39 °FChilly.6 mph33%30.33 "HgN/A
10:00 AM38 °FChilly.2 mph32%30.33 "HgN/A
9:00 AM32 °FChilly.2 mph45%30.34 "HgN/A
8:00 AM26 °FChilly.5 mph52%30.34 "HgN/A
7:00 AM23 °FCold.2 mph61%30.35 "HgN/A
6:00 AM21 °FCold.1 mph59%30.35 "HgN/A
5:00 AM22 °FCold.1 mph52%30.35 "HgN/A
4:00 AM23 °FCold.1 mph50%30.35 "HgN/A
3:00 AM23 °FCold.1 mph51%30.36 "HgN/A
2:00 AM24 °FCold.1 mph50%30.36 "HgN/A
1:00 AM25 °FChilly.No wind46%30.36 "HgN/A
12:00 AM26 °FChilly.1 mph50%30.36 "HgN/A
11:00 PM
Apr 17
27 °FChilly.1 mph46%30.36 "HgN/A
10:00 PM28 °FChilly.1 mph40%30.37 "HgN/A
9:00 PM29 °FChilly.2 mph36%30.36 "HgN/A
8:00 PM31 °FChilly.3 mph32%30.36 "HgN/A
7:00 PM35 °FChilly.3 mph25%30.36 "HgN/A
6:00 PM36 °FChilly.5 mph28%30.37 "HgN/A
5:00 PM35 °FChilly.5 mph26%30.37 "HgN/A
4:00 PM36 °FChilly.5 mph27%30.38 "HgN/A
3:00 PM36 °FChilly.6 mph27%30.39 "HgN/A
2:00 PM35 °FChilly.5 mph32%30.40 "HgN/A
1:00 PM35 °FChilly.5 mph28%30.41 "HgN/A
Weather by CustomWeather, © 2014

See weather overview